This is the latest recevied weather packets stored in our database for station/object KC9DRE. If no packets are shown the sender has not sent any weather packets the latest 1 day(s).
| Time | Temp. | Humidity | Pressure | Rain* | Wind** | Luminosity | Snow |
|---|---|---|---|---|---|---|---|
| 1778040080 | 10.56° C | 96% | 1007.7 hPa | 0 mm | - | 0 W/m² | - |
| 1778039777 | 10.56° C | 96% | 1007.5 hPa | 0 mm | - | 0 W/m² | - |
| 1778039474 | 10.56° C | 97% | 1008.1 hPa | 0 mm | - | 0 W/m² | - |
| 1778039171 | 10.56° C | 96% | 1008.1 hPa | 0 mm | - | 0 W/m² | - |
| 1778038868 | 10.56° C | 96% | 1007.9 hPa | 0 mm | - | 0 W/m² | - |
| 1778038565 | 11.11° C | 96% | 1007.4 hPa | 0 mm | - | 0 W/m² | - |
| 1778038262 | 11.11° C | 96% | 1007.6 hPa | 0 mm | - | 0 W/m² | - |
| 1778037959 | 11.11° C | 96% | 1007.4 hPa | 0 mm | - | 0 W/m² | - |
| 1778037656 | 11.11° C | 96% | 1007.5 hPa | 0 mm | - | 0 W/m² | - |
| 1778037353 | 11.11° C | 96% | 1007.5 hPa | 0 mm | - | 0 W/m² | - |
| 1778037050 | 11.11° C | 96% | 1007.4 hPa | 0 mm | - | 0 W/m² | - |
| 1778036749 | 11.67° C | 96% | 1007.7 hPa | 0 mm | - | 0 W/m² | - |
| 1778036142 | 11.67° C | 96% | 1007.3 hPa | 0 mm | - | 0 W/m² | - |
| 1778035838 | 11.67° C | 96% | 1007.7 hPa | 0 mm | - | 0 W/m² | - |
| 1778035536 | 11.67° C | 96% | 1007.5 hPa | 0 mm | - | 0 W/m² | - |
| 1778035232 | 12.22° C | 96% | 1007.4 hPa | 0 mm | - | 0 W/m² | - |
| 1778034928 | 12.22° C | 96% | 1007.5 hPa | 0 mm | - | 0 W/m² | - |
| 1778034626 | 12.22° C | 95% | 1007.5 hPa | 0 mm | - | 0 W/m² | - |
| 1778034323 | 12.22° C | 95% | 1007.4 hPa | 0 mm | - | 0 W/m² | - |
| 1778033718 | 12.78° C | 96% | 1007.5 hPa | 0 mm | - | 0 W/m² | - |
| 1778032204 | 14.44° C | 96% | 1007.6 hPa | 0 mm | - | 0 W/m² | - |
| 1778031901 | 14.44° C | 96% | 1007.4 hPa | 0 mm | - | 0 W/m² | - |
| 1778031597 | 15° C | 96% | 1007.4 hPa | 0 mm | - | 0 W/m² | - |
| 1778031295 | 15° C | 96% | 1007.3 hPa | 0 mm | - | 0 W/m² | - |
| 1778030991 | 15.56° C | 96% | 1007.2 hPa | 0 mm | - | 0 W/m² | - |
* Rain latest hour (hover to see other rain measurements)
** Current wind speed in m/s (hover to see current wind gust speed)